M I D A S
Marine Information and Data Acquisition System
Tripno 1243 of the Zeeleeuw from 2007-03-30 07:34:46 to 2007-03-30 14:13:55
Back to CruiseResearch ActivitiesStationsMapUnderway DataData graphs

EquipmentUnitsComment
TimeDGPSUTC
LatitudeDGPSDM.mWGS84
LongitudeDGPSDM.mWGS84
HeadingGyrodeg 
SOGDGPSknotsSpeed over ground
COGDGPSdegCourse over ground
DepthEcho soundermeters200 kHz
Missing or incorrect values are displayed as -999
Navigation data collected by the RV Zeeleeuw from 2007-03-30 07:35:03 to 2007-03-30 14:25:15
                                                                                    Next 1000 lines
Time Latitude Longitude Heading SOG COG Depth
2007-03-30 07:35:13 51°13.602 2°56.095 113.3 1 289 5.2
2007-03-30 07:35:17 51°13.602 2°56.093 113.3 1.3 293 5.3
2007-03-30 07:35:23 51°13.603 2°56.089 113.5 1.6 291 5.4
2007-03-30 07:35:28 51°13.604 2°56.085 113.7 1.9 294 5.7
2007-03-30 07:35:34 51°13.605 2°56.08 114 2.2 292 -999
2007-03-30 07:35:39 51°13.606 2°56.075 114.2 2.4 294 -999
2007-03-30 07:35:45 51°13.608 2°56.069 114.2 2.6 292 -999
2007-03-30 07:35:51 51°13.609 2°56.062 113.9 2.8 293 -999
2007-03-30 07:35:56 51°13.611 2°56.056 113.5 2.9 290 -999
2007-03-30 07:36:01 51°13.613 2°56.05 113.2 3 291 -999
2007-03-30 07:36:06 51°13.614 2°56.044 113 3.2 290 -999
2007-03-30 07:36:11 51°13.616 2°56.037 113 3.3 289 -999
2007-03-30 07:36:16 51°13.618 2°56.03 113 3.4 289 -999
2007-03-30 07:36:21 51°13.619 2°56.023 113.3 3.6 289 -999
2007-03-30 07:36:26 51°13.621 2°56.015 114 3.8 289 -999
2007-03-30 07:36:31 51°13.623 2°56.007 115.1 3.9 291 -999
2007-03-30 07:36:36 51°13.625 2°55.999 116.7 3.9 292 -999
2007-03-30 07:36:41 51°13.627 2°55.991 117.9 3.9 293 -999
2007-03-30 07:36:46 51°13.629 2°55.983 119.2 3.9 294 -999
2007-03-30 07:36:51 51°13.632 2°55.975 120.6 3.9 295 -999
2007-03-30 07:36:56 51°13.634 2°55.968 122.1 3.9 296 -999
2007-03-30 07:37:01 51°13.637 2°55.96 123 3.8 297 -999
2007-03-30 07:37:06 51°13.64 2°55.953 124.2 3.8 298 -999
2007-03-30 07:37:11 51°13.643 2°55.946 125.5 3.8 300 5
2007-03-30 07:37:16 51°13.645 2°55.938 126.4 3.8 301 -999
2007-03-30 07:37:21 51°13.648 2°55.931 127.5 3.7 303 -999
2007-03-30 07:37:26 51°13.65 2°55.925 128.4 3.6 303 6.3
2007-03-30 07:37:31 51°13.652 2°55.918 129.3 3.5 305 4.7
2007-03-30 07:37:36 51°13.655 2°55.912 130.8 3.4 306 -999
2007-03-30 07:37:41 51°13.658 2°55.906 132 3.3 307 -999
2007-03-30 07:37:46 51°13.66 2°55.9 132.8 3.2 308 10.1
2007-03-30 07:37:51 51°13.663 2°55.895 133.3 3.1 308 10.2
2007-03-30 07:37:56 51°13.666 2°55.89 134 2.9 309 4.7
2007-03-30 07:38:01 51°13.668 2°55.885 134.8 2.8 309 10.1
2007-03-30 07:38:06 51°13.671 2°55.881 135.7 2.7 310 -999
2007-03-30 07:38:11 51°13.674 2°55.877 136.5 2.5 311 4.8
2007-03-30 07:38:16 51°13.676 2°55.873 137.1 2.2 311 10.2
2007-03-30 07:38:21 51°13.677 2°55.87 137.9 1.9 311 -999
2007-03-30 07:38:26 51°13.679 2°55.867 138 1.7 311 10.1
2007-03-30 07:38:31 51°13.68 2°55.864 138.2 1.5 311 10.1
2007-03-30 07:38:36 51°13.682 2°55.862 138.2 1.2 312 10
2007-03-30 07:38:41 51°13.682 2°55.861 138.2 0.8 311 10
2007-03-30 07:38:46 51°13.683 2°55.86 138.1 0.4 311 10
2007-03-30 07:38:51 51°13.683 2°55.86 137.8 -999 83 10
2007-03-30 07:38:56 51°13.682 2°55.86 137.1 0.2 131 10
2007-03-30 07:39:01 51°13.682 2°55.861 136.1 0.1 58 10
2007-03-30 07:39:06 51°13.683 2°55.86 134.6 0.2 298 10
2007-03-30 07:39:10 51°13.683 2°55.86 133.4 0.4 309 10
2007-03-30 07:39:16 51°13.683 2°55.859 132.4 0.7 300 10
2007-03-30 07:39:20 51°13.684 2°55.857 131.3 1.1 309 10
2007-03-30 07:39:25 51°13.685 2°55.855 130.8 1.4 307 10.1
2007-03-30 07:39:30 51°13.686 2°55.851 130.5 2 307 10
2007-03-30 07:39:36 51°13.689 2°55.846 130.2 2.4 306 10
2007-03-30 07:39:41 51°13.691 2°55.842 129.8 2.7 307 -999
2007-03-30 07:39:46 51°13.693 2°55.836 129.2 2.8 307 -999
2007-03-30 07:39:51 51°13.696 2°55.832 129 2.9 306 -999
2007-03-30 07:39:56 51°13.698 2°55.826 128.7 2.9 306 -999
2007-03-30 07:40:01 51°13.701 2°55.821 128.2 2.9 305 -999
2007-03-30 07:40:06 51°13.703 2°55.816 127.7 2.9 305 -999
2007-03-30 07:40:11 51°13.705 2°55.81 127 3 304 -999
2007-03-30 07:40:16 51°13.708 2°55.805 126.3 3 304 -999
2007-03-30 07:40:21 51°13.71 2°55.799 125.7 3.1 304 -999
2007-03-30 07:40:26 51°13.712 2°55.794 125.2 3.1 303 -999
2007-03-30 07:40:31 51°13.714 2°55.788 124.7 3.1 302 4.6
2007-03-30 07:40:36 51°13.716 2°55.782 123.8 3.2 301 -999
2007-03-30 07:40:42 51°13.719 2°55.774 122.8 3.3 300 -999
2007-03-30 07:40:46 51°13.721 2°55.769 121.9 3.4 299 -999
2007-03-30 07:40:51 51°13.723 2°55.762 120.8 3.6 298 -999
2007-03-30 07:40:56 51°13.726 2°55.755 120 3.7 298 -999
2007-03-30 07:41:01 51°13.728 2°55.748 119.3 3.6 297 -999
2007-03-30 07:41:07 51°13.731 2°55.74 118.6 3.4 297 -999
2007-03-30 07:41:11 51°13.732 2°55.734 117.9 3.3 297 -999
2007-03-30 07:41:16 51°13.734 2°55.728 117.3 3.1 297 -999
2007-03-30 07:41:21 51°13.736 2°55.722 116.6 2.9 296 -999
2007-03-30 07:41:26 51°13.737 2°55.717 116.1 2.7 295 12.1
2007-03-30 07:41:31 51°13.738 2°55.712 115.2 2.5 296 12
2007-03-30 07:41:36 51°13.74 2°55.707 114.3 2.3 295 11.7
2007-03-30 07:41:41 51°13.741 2°55.703 113.3 2.1 294 11.6
2007-03-30 07:41:46 51°13.742 2°55.7 112.3 1.6 297 11.5
2007-03-30 07:41:50 51°13.743 2°55.698 110.9 1 301 11.5
2007-03-30 07:41:56 51°13.743 2°55.698 108.8 0.4 326 11.5
2007-03-30 07:42:01 51°13.743 2°55.698 105.2 0.3 51 11.6
2007-03-30 07:42:05 51°13.744 2°55.699 100.5 0.5 61 11.6
2007-03-30 07:42:10 51°13.744 2°55.7 95 0.5 60 11.7
2007-03-30 07:42:16 51°13.745 2°55.701 90.2 0.4 60 11.7
2007-03-30 07:42:20 51°13.745 2°55.702 86.3 0.3 51 11.7
2007-03-30 07:42:25 51°13.745 2°55.702 84.5 0.1 10 11.7
2007-03-30 07:42:30 51°13.745 2°55.701 82.5 0.3 292 11.7
2007-03-30 07:42:35 51°13.745 2°55.7 80.5 0.6 271 11.7
2007-03-30 07:42:40 51°13.745 2°55.698 79 0.9 266 11.7
2007-03-30 07:42:45 51°13.745 2°55.695 77.4 1.2 261 11.7
2007-03-30 07:42:50 51°13.745 2°55.693 76.4 1.2 263 11.7
2007-03-30 07:42:55 51°13.744 2°55.69 75 1.2 257 11.7
2007-03-30 07:43:00 51°13.744 2°55.688 73.9 1.2 259 11.7
2007-03-30 07:43:05 51°13.744 2°55.686 72.3 1.1 257 -999
2007-03-30 07:43:11 51°13.743 2°55.683 71.1 1.1 257 5.3
2007-03-30 07:43:16 51°13.743 2°55.681 70.2 0.9 255 11.2
2007-03-30 07:43:21 51°13.743 2°55.679 69 0.7 261 -999
2007-03-30 07:43:26 51°13.743 2°55.678 67.4 0.5 261 11.5
2007-03-30 07:43:31 51°13.743 2°55.678 65.9 0.3 268 11.6
2007-03-30 07:43:36 51°13.743 2°55.677 64.4 0.2 288 11.6
2007-03-30 07:43:41 51°13.743 2°55.677 62.2 0.2 12 11.6
2007-03-30 07:43:46 51°13.743 2°55.678 59.8 0.3 31 11.6
2007-03-30 07:43:51 51°13.744 2°55.678 57.3 0.4 38 11.6
2007-03-30 07:43:56 51°13.745 2°55.679 54.1 0.7 38 -999
2007-03-30 07:44:01 51°13.746 2°55.68 50.8 0.9 36 11.4
2007-03-30 07:44:06 51°13.747 2°55.682 47.7 1.2 33 11.5
2007-03-30 07:44:10 51°13.748 2°55.683 43.4 1.3 28 11.6
2007-03-30 07:44:16 51°13.75 2°55.685 38.5 1.4 23 11.7
2007-03-30 07:44:21 51°13.752 2°55.686 33.4 1.5 19 11.7
2007-03-30 07:44:25 51°13.754 2°55.686 28.7 1.6 14 11.8
2007-03-30 07:44:30 51°13.757 2°55.687 23.9 1.7 10 11.7
2007-03-30 07:44:35 51°13.759 2°55.687 19.3 1.9 5 11.5
2007-03-30 07:44:40 51°13.762 2°55.688 14.7 2.1 2 11.5
2007-03-30 07:44:45 51°13.765 2°55.687 10 2.4 358 11.4
2007-03-30 07:44:50 51°13.769 2°55.686 4.3 2.7 351 11.4
2007-03-30 07:44:55 51°13.773 2°55.685 358.5 2.9 348 11.3
2007-03-30 07:45:00 51°13.777 2°55.683 353 3 342 11.3
2007-03-30 07:45:05 51°13.781 2°55.681 348.3 3.1 341 11.4
2007-03-30 07:45:09 51°13.785 2°55.679 344.8 3.4 338 11.3
2007-03-30 07:45:14 51°13.789 2°55.676 341.8 3.6 336 11.2
2007-03-30 07:45:20 51°13.795 2°55.671 339.2 3.9 333 11.3
2007-03-30 07:45:25 51°13.8 2°55.667 337 4.3 332 11.3
2007-03-30 07:45:29 51°13.805 2°55.662 336 4.6 332 11.3
2007-03-30 07:45:34 51°13.811 2°55.658 336 4.9 333 11.3
2007-03-30 07:45:39 51°13.818 2°55.652 336.8 5.3 333 11.3
2007-03-30 07:45:44 51°13.824 2°55.647 336.9 5.6 332 11.3
2007-03-30 07:45:49 51°13.832 2°55.641 336.7 5.9 333 11.3
2007-03-30 07:45:54 51°13.839 2°55.634 336.7 6.1 333 11.3
2007-03-30 07:45:59 51°13.847 2°55.628 337.4 6.3 334 11.3
2007-03-30 07:46:04 51°13.855 2°55.621 337.5 6.6 333 11.2
2007-03-30 07:46:09 51°13.864 2°55.614 337.2 6.9 333 11.2
2007-03-30 07:46:14 51°13.872 2°55.607 337 7.2 333 11.2
2007-03-30 07:46:18 51°13.88 2°55.602 337 7.5 333 11.2
2007-03-30 07:46:23 51°13.889 2°55.593 337 7.7 332 11.1
2007-03-30 07:46:28 51°13.899 2°55.585 337.4 7.9 334 11.2
2007-03-30 07:46:33 51°13.909 2°55.577 337.9 8.2 333 11.2
2007-03-30 07:46:38 51°13.92 2°55.569 338 8.4 334 11.3
2007-03-30 07:46:43 51°13.93 2°55.56 338.5 8.6 334 11.1
2007-03-30 07:46:48 51°13.941 2°55.552 339 8.9 334 11.2
2007-03-30 07:46:53 51°13.953 2°55.544 338.9 9.1 334 11.3
2007-03-30 07:46:58 51°13.964 2°55.535 338.8 9.2 334 11.3
2007-03-30 07:47:03 51°13.976 2°55.526 339.4 9.3 335 11.3
2007-03-30 07:47:07 51°13.986 2°55.519 339.3 9.4 334 11.3
2007-03-30 07:47:13 51°14 2°55.508 338.9 9.5 335 11.4
2007-03-30 07:47:18 51°14.012 2°55.499 339.6 9.6 335 11.3
2007-03-30 07:47:23 51°14.024 2°55.491 340.1 9.6 336 11.2
2007-03-30 07:47:28 51°14.036 2°55.482 340.2 9.7 335 11.3
2007-03-30 07:47:33 51°14.049 2°55.473 340.6 9.7 336 11.3
2007-03-30 07:47:38 51°14.061 2°55.464 340.5 9.7 335 11.4
2007-03-30 07:47:43 51°14.073 2°55.455 340.4 9.7 336 11.4
2007-03-30 07:47:48 51°14.085 2°55.446 340.2 9.7 335 -999
2007-03-30 07:47:53 51°14.097 2°55.437 339.7 9.8 335 11.5
2007-03-30 07:47:58 51°14.109 2°55.428 339.7 9.8 335 -999
2007-03-30 07:48:03 51°14.122 2°55.418 339.4 9.7 334 11.5
2007-03-30 07:48:08 51°14.134 2°55.409 338.5 9.7 332 11.5
2007-03-30 07:48:13 51°14.146 2°55.398 336.9 9.7 331 -999
2007-03-30 07:48:19 51°14.16 2°55.385 335 9.7 329 11.5
2007-03-30 07:48:24 51°14.171 2°55.374 334.3 9.8 328 11.5
2007-03-30 07:48:29 51°14.182 2°55.363 333.3 9.7 328 -999
2007-03-30 07:48:34 51°14.194 2°55.351 332.4 9.7 326 11.5
2007-03-30 07:48:38 51°14.202 2°55.341 330.9 9.8 325 11.5
2007-03-30 07:48:43 51°14.214 2°55.328 329.5 9.8 323 11.5
2007-03-30 07:48:48 51°14.224 2°55.315 328 9.8 322 11.1
2007-03-30 07:48:53 51°14.235 2°55.301 326.4 9.8 320 11.5
2007-03-30 07:48:58 51°14.245 2°55.287 324.6 9.8 318 11.5
2007-03-30 07:49:03 51°14.255 2°55.272 322.8 9.7 316 11.5
2007-03-30 07:49:08 51°14.264 2°55.256 319.8 9.8 313 11.3
2007-03-30 07:49:13 51°14.273 2°55.24 317.8 9.9 313 11.2
2007-03-30 07:49:18 51°14.282 2°55.223 316.8 10 311 11.3
2007-03-30 07:49:23 51°14.291 2°55.206 315.7 10.2 311 11.4
2007-03-30 07:49:28 51°14.301 2°55.188 314.9 10.6 309 11.3
2007-03-30 07:49:33 51°14.31 2°55.17 314.7 10.8 311 11.3
2007-03-30 07:49:38 51°14.32 2°55.151 314.7 11 310 11.2
2007-03-30 07:49:43 51°14.33 2°55.132 314.7 11.2 310 11.2
2007-03-30 07:49:47 51°14.338 2°55.117 314.5 11.3 309 11.2
2007-03-30 07:49:53 51°14.35 2°55.093 313.5 11.4 308 11
2007-03-30 07:49:57 51°14.357 2°55.076 311.9 11.6 306 10.8
2007-03-30 07:50:03 51°14.369 2°55.051 310.8 11.8 305 11
2007-03-30 07:50:08 51°14.378 2°55.029 309.1 11.9 302 10.6
2007-03-30 07:50:13 51°14.386 2°55.006 306.9 12.1 301 10.6
2007-03-30 07:50:17 51°14.393 2°54.987 304.8 12.3 299 10.9
2007-03-30 07:50:23 51°14.403 2°54.957 303.4 12.6 299 10.9
2007-03-30 07:50:28 51°14.411 2°54.933 303.2 12.8 299 10.9
2007-03-30 07:50:33 51°14.42 2°54.907 303.3 13 299 11
2007-03-30 07:50:38 51°14.429 2°54.882 303.6 13.2 298 11.3
2007-03-30 07:50:43 51°14.438 2°54.856 303.2 13.3 298 10.8
2007-03-30 07:50:48 51°14.446 2°54.829 302.3 13.4 296 11.1
2007-03-30 07:50:53 51°14.454 2°54.802 300.6 13.5 295 11.5
2007-03-30 07:50:57 51°14.46 2°54.78 298.5 13.5 292 10.8
2007-03-30 07:51:03 51°14.467 2°54.747 296.8 13.6 291 10.7
2007-03-30 07:51:08 51°14.474 2°54.718 295.5 13.6 290 11
2007-03-30 07:51:13 51°14.48 2°54.69 294.2 13.7 289 10.7
2007-03-30 07:51:18 51°14.486 2°54.661 293.3 13.7 289 11.1
2007-03-30 07:51:23 51°14.493 2°54.633 292.7 13.7 289 11
2007-03-30 07:51:27 51°14.498 2°54.61 294.3 13.7 293 10.9
2007-03-30 07:51:33 51°14.508 2°54.577 297.5 13.7 295 11.1
2007-03-30 07:51:38 51°14.516 2°54.549 298.6 13.7 296 11
2007-03-30 07:51:43 51°14.526 2°54.523 301.1 13.7 300 11.2
2007-03-30 07:51:48 51°14.536 2°54.498 305 13.7 304 10.9
2007-03-30 07:51:53 51°14.548 2°54.474 309.5 13.6 308 11
2007-03-30 07:51:58 51°14.56 2°54.452 313.9 13.6 311 10.8
2007-03-30 07:52:03 51°14.573 2°54.429 316 13.6 311 11
2007-03-30 07:52:08 51°14.586 2°54.407 316.8 13.6 312 11.1
2007-03-30 07:52:13 51°14.598 2°54.384 317.3 13.6 313 10.9
2007-03-30 07:52:18 51°14.612 2°54.364 318.6 13.6 316 10.5
2007-03-30 07:52:23 51°14.626 2°54.344 321.8 13.6 318 10.5
2007-03-30 07:52:28 51°14.641 2°54.325 325 13.5 322 10.4
2007-03-30 07:52:33 51°14.656 2°54.308 328.5 13.4 325 10.3
2007-03-30 07:52:38 51°14.672 2°54.294 331.6 13.4 330 10.3
2007-03-30 07:52:43 51°14.689 2°54.28 335.6 13.3 333 10.3
2007-03-30 07:52:48 51°14.705 2°54.268 339.2 13.3 335 10.2
2007-03-30 07:52:53 51°14.722 2°54.255 340.4 13.4 334 10.2
2007-03-30 07:52:57 51°14.735 2°54.245 340.5 13.4 334 10.1
2007-03-30 07:53:03 51°14.755 2°54.229 340.4 13.4 333 10.1
2007-03-30 07:53:08 51°14.772 2°54.215 339.8 13.4 333 9.9
2007-03-30 07:53:13 51°14.788 2°54.201 339.3 13.4 332 9.9
2007-03-30 07:53:18 51°14.805 2°54.188 338.9 13.4 332 9.8
2007-03-30 07:53:22 51°14.818 2°54.176 338.6 13.3 331 9.6
2007-03-30 07:53:27 51°14.834 2°54.162 338.5 13.3 331 9.6
2007-03-30 07:53:33 51°14.853 2°54.145 338.3 13.3 332 9.7
2007-03-30 07:53:38 51°14.87 2°54.132 338.6 13.3 333 9.5
2007-03-30 07:53:43 51°14.886 2°54.118 339.5 13.3 333 9.5
2007-03-30 07:53:48 51°14.903 2°54.105 339.9 13.3 333 9.3
2007-03-30 07:53:53 51°14.919 2°54.092 339.9 13.3 333 9.2
2007-03-30 07:53:58 51°14.936 2°54.079 340 13.3 334 9.7
2007-03-30 07:54:03 51°14.953 2°54.066 340.4 13.3 334 9.8
2007-03-30 07:54:08 51°14.969 2°54.053 340.5 13.4 334 9.7
2007-03-30 07:54:13 51°14.986 2°54.04 340.4 13.4 333 9.7
2007-03-30 07:54:18 51°15.002 2°54.026 340 13.4 333 9.4
2007-03-30 07:54:23 51°15.019 2°54.013 339.6 13.4 333 9.3
2007-03-30 07:54:28 51°15.036 2°53.999 339.5 13.4 333 9.3
2007-03-30 07:54:33 51°15.052 2°53.985 339.3 13.4 333 9.8
2007-03-30 07:54:37 51°15.065 2°53.975 339.3 13.5 333 9.6
2007-03-30 07:54:43 51°15.085 2°53.958 339.4 13.5 333 9.5
2007-03-30 07:54:48 51°15.102 2°53.945 339.6 13.4 333 9.1
2007-03-30 07:54:53 51°15.119 2°53.931 339.8 13.4 333 9.5
2007-03-30 07:54:57 51°15.132 2°53.921 339.9 13.4 333 9.6
2007-03-30 07:55:03 51°15.152 2°53.905 340.1 13.4 334 9.6
2007-03-30 07:55:08 51°15.168 2°53.892 340.4 13.5 334 9.4
2007-03-30 07:55:13 51°15.185 2°53.878 340.5 13.4 334 9.7
2007-03-30 07:55:17 51°15.199 2°53.868 341 13.4 334 9.8
2007-03-30 07:55:23 51°15.219 2°53.853 341 13.5 334 9.8
2007-03-30 07:55:28 51°15.236 2°53.839 341 13.5 334 9.8
2007-03-30 07:55:33 51°15.252 2°53.826 340.8 13.5 333 9.9
2007-03-30 07:55:38 51°15.269 2°53.812 340.3 13.5 333 9.8
2007-03-30 07:55:42 51°15.282 2°53.801 339.8 13.5 332 9.9
2007-03-30 07:55:48 51°15.302 2°53.785 339.6 13.5 333 9.9
2007-03-30 07:55:53 51°15.319 2°53.771 339.6 13.5 332 10.1
2007-03-30 07:55:58 51°15.336 2°53.757 339.4 13.6 333 10.1
2007-03-30 07:56:02 51°15.349 2°53.746 339.5 13.5 332 10
2007-03-30 07:56:07 51°15.366 2°53.732 339.5 13.6 332 10.2
2007-03-30 07:56:12 51°15.382 2°53.718 339.5 13.5 332 10.2
2007-03-30 07:56:18 51°15.402 2°53.701 339.5 13.5 332 10.3
2007-03-30 07:56:23 51°15.419 2°53.687 339.5 13.5 332 10.3
2007-03-30 07:56:28 51°15.435 2°53.673 339.4 13.6 332 10.3
2007-03-30 07:56:33 51°15.452 2°53.658 339.4 13.5 332 10.4
2007-03-30 07:56:38 51°15.468 2°53.645 339.5 13.5 333 10.5
2007-03-30 07:56:43 51°15.485 2°53.631 340 13.5 333 10.5
2007-03-30 07:56:48 51°15.502 2°53.618 340.3 13.5 333 10.6
2007-03-30 07:56:52 51°15.515 2°53.607 340.5 13.5 334 10.6
2007-03-30 07:56:57 51°15.532 2°53.593 340.5 13.5 333 10.7
2007-03-30 07:57:03 51°15.552 2°53.577 340.5 13.5 333 10.8
2007-03-30 07:57:08 51°15.568 2°53.564 340.5 13.4 334 10.8
2007-03-30 07:57:12 51°15.582 2°53.554 340.7 13.4 333 10.9
2007-03-30 07:57:17 51°15.598 2°53.54 340.4 13.4 333 10.9
2007-03-30 07:57:23 51°15.618 2°53.524 340.4 13.4 333 11
2007-03-30 07:57:28 51°15.635 2°53.511 340.4 13.4 333 11
2007-03-30 07:57:33 51°15.652 2°53.497 340.3 13.4 333 11
2007-03-30 07:57:37 51°15.665 2°53.487 340.1 13.4 333 11.1
2007-03-30 07:57:43 51°15.685 2°53.471 340.1 13.4 334 11.1
2007-03-30 07:57:48 51°15.702 2°53.458 340.4 13.4 334 11.2
2007-03-30 07:57:53 51°15.719 2°53.445 340.5 13.4 334 11.2
2007-03-30 07:57:58 51°15.735 2°53.432 340.7 13.4 335 11.3
2007-03-30 07:58:02 51°15.749 2°53.422 340.9 13.4 334 11.3
2007-03-30 07:58:08 51°15.769 2°53.406 340.6 13.5 334 11.4
2007-03-30 07:58:13 51°15.786 2°53.392 340.2 13.5 333 11.4
2007-03-30 07:58:17 51°15.799 2°53.382 339.7 13.5 333 11.5
2007-03-30 07:58:23 51°15.819 2°53.365 339.5 13.5 332 11.6
2007-03-30 07:58:28 51°15.836 2°53.352 339.4 13.5 333 11.6
2007-03-30 07:58:33 51°15.852 2°53.338 339.7 13.4 333 11.6
2007-03-30 07:58:38 51°15.869 2°53.325 339.8 13.4 333 11.6
2007-03-30 07:58:43 51°15.885 2°53.311 339.9 13.4 333 11.6
2007-03-30 07:58:48 51°15.902 2°53.298 340.2 13.4 333 11.7
2007-03-30 07:58:53 51°15.918 2°53.285 340.3 13.4 334 11.8
2007-03-30 07:58:58 51°15.935 2°53.272 340.3 13.4 333 11.8
2007-03-30 07:59:03 51°15.952 2°53.259 340 13.3 333 11.7
2007-03-30 07:59:08 51°15.968 2°53.246 339.9 13.3 333 11.8
2007-03-30 07:59:13 51°15.985 2°53.232 339.7 13.3 333 11.9
2007-03-30 07:59:17 51°15.998 2°53.222 339.7 13.3 333 11.8
2007-03-30 07:59:22 51°16.014 2°53.208 339.8 13.3 333 11.9
2007-03-30 07:59:28 51°16.034 2°53.193 339.8 13.3 334 11.9
2007-03-30 07:59:33 51°16.051 2°53.18 340.1 13.3 334 11.9
2007-03-30 07:59:38 51°16.067 2°53.167 340.4 13.3 334 12.2
2007-03-30 07:59:43 51°16.084 2°53.155 340.6 13.2 334 12
2007-03-30 07:59:48 51°16.1 2°53.142 340.6 13.3 334 11.9
2007-03-30 07:59:53 51°16.117 2°53.129 340.7 13.2 335 12
2007-03-30 07:59:58 51°16.134 2°53.117 340.8 13.2 335 12
2007-03-30 08:00:03 51°16.15 2°53.104 340.8 13.2 335 12
2007-03-30 08:00:08 51°16.167 2°53.092 340.8 13.2 334 11.9
2007-03-30 08:00:13 51°16.183 2°53.079 340.5 13.3 334 12
2007-03-30 08:00:18 51°16.2 2°53.066 340.4 13.3 334 12
2007-03-30 08:00:22 51°16.213 2°53.056 340.3 13.3 335 12
2007-03-30 08:00:28 51°16.233 2°53.041 340.4 13.2 335 12
2007-03-30 08:00:33 51°16.25 2°53.029 340.5 13.2 335 12
2007-03-30 08:00:38 51°16.266 2°53.016 340.5 13.2 334 12
2007-03-30 08:00:43 51°16.283 2°53.003 340.2 13.3 334 12.1
2007-03-30 08:00:48 51°16.299 2°52.991 340 13.2 334 12.1
2007-03-30 08:00:53 51°16.316 2°52.978 340 13.2 334 12.3
2007-03-30 08:00:58 51°16.332 2°52.965 340.1 13.2 335 12.1
2007-03-30 08:01:03 51°16.349 2°52.953 340.2 13.2 335 12.1
2007-03-30 08:01:08 51°16.366 2°52.94 340.4 13.2 335 12.1
2007-03-30 08:01:13 51°16.382 2°52.928 340.4 13.2 335 12.3
2007-03-30 08:01:18 51°16.399 2°52.915 340.4 13.2 335 12.3
2007-03-30 08:01:22 51°16.412 2°52.905 340.4 13.2 335 12.1
2007-03-30 08:01:28 51°16.432 2°52.89 340.4 13.2 335 12.1
2007-03-30 08:01:32 51°16.445 2°52.881 340.4 13.2 335 12.3
2007-03-30 08:01:38 51°16.465 2°52.865 340.5 13.2 335 12.2
2007-03-30 08:01:43 51°16.482 2°52.853 340.4 13.2 335 12.2
2007-03-30 08:01:48 51°16.498 2°52.84 340.1 13.2 334 12.2
2007-03-30 08:01:53 51°16.515 2°52.828 340.3 13.3 335 12.1
2007-03-30 08:01:57 51°16.529 2°52.818 340.7 13.3 336 12
2007-03-30 08:02:03 51°16.549 2°52.804 341.3 13.3 336 12
2007-03-30 08:02:08 51°16.566 2°52.792 341.6 13.2 337 11.9
2007-03-30 08:02:13 51°16.583 2°52.781 342.2 13.2 336 11.9
2007-03-30 08:02:18 51°16.599 2°52.769 342.2 13.2 337 11.9
2007-03-30 08:02:22 51°16.613 2°52.76 342.3 13.3 337 11.9
2007-03-30 08:02:28 51°16.633 2°52.746 342.3 13.2 336 11.8
2007-03-30 08:02:33 51°16.65 2°52.734 342.1 13.2 336 11.7
2007-03-30 08:02:37 51°16.663 2°52.724 342.1 13.2 336 11.4
2007-03-30 08:02:43 51°16.683 2°52.711 342 13.2 336 11.3
2007-03-30 08:02:48 51°16.7 2°52.699 342.1 13.1 336 11.2
2007-03-30 08:02:52 51°16.713 2°52.69 342.2 13.1 336 10.9
2007-03-30 08:02:58 51°16.733 2°52.676 342.2 13.1 336 10.5
2007-03-30 08:03:03 51°16.75 2°52.664 342.2 13 336 10.2
2007-03-30 08:03:08 51°16.766 2°52.653 342.2 13 336 10.1
2007-03-30 08:03:13 51°16.783 2°52.641 342.2 13 336 10.3
2007-03-30 08:03:18 51°16.8 2°52.63 342.2 13 336 10.4
2007-03-30 08:03:23 51°16.816 2°52.619 342.1 13.1 336 10.2
2007-03-30 08:03:28 51°16.833 2°52.607 342.1 13.1 336 10.1
2007-03-30 08:03:33 51°16.85 2°52.596 342.2 13.1 336 10.1
2007-03-30 08:03:37 51°16.863 2°52.586 342.3 13.1 336 10.3
2007-03-30 08:03:42 51°16.879 2°52.574 342.3 13 336 10.1
2007-03-30 08:03:48 51°16.899 2°52.56 342.3 13.1 336 10.2
2007-03-30 08:03:53 51°16.916 2°52.548 342.2 13.1 336 10.3
2007-03-30 08:03:58 51°16.932 2°52.537 342 13.1 336 10.2
2007-03-30 08:04:03 51°16.949 2°52.525 342.2 13.1 336 10.2
2007-03-30 08:04:08 51°16.966 2°52.513 342.3 13.1 336 10.3
2007-03-30 08:04:13 51°16.982 2°52.501 342.3 13.1 336 10
2007-03-30 08:04:18 51°16.999 2°52.49 342.4 13 336 9.9
2007-03-30 08:04:23 51°17.015 2°52.478 342.5 13 336 10
2007-03-30 08:04:28 51°17.032 2°52.467 342.3 13.1 336 10
2007-03-30 08:04:33 51°17.049 2°52.455 342.3 13.1 336 10
2007-03-30 08:04:38 51°17.065 2°52.443 342.3 13.1 336 10.2
2007-03-30 08:04:42 51°17.078 2°52.434 342.2 13.1 336 10.2
2007-03-30 08:04:48 51°17.098 2°52.419 342 13.1 336 10.2
2007-03-30 08:04:53 51°17.115 2°52.407 341.8 13.1 336 10.4
2007-03-30 08:04:58 51°17.131 2°52.395 342 13.1 336 10.2
2007-03-30 08:05:03 51°17.148 2°52.384 342.4 13.1 336 10.4
2007-03-30 08:05:08 51°17.164 2°52.372 342.6 13.1 336 10.6
2007-03-30 08:05:12 51°17.178 2°52.363 342.5 13.1 336 10.5
2007-03-30 08:05:18 51°17.198 2°52.349 342.3 13.1 336 10.6
2007-03-30 08:05:23 51°17.214 2°52.337 342.3 13.2 336 10.8
2007-03-30 08:05:28 51°17.231 2°52.325 342.2 13.2 336 10.8
2007-03-30 08:05:33 51°17.248 2°52.313 342.4 13.2 336 10.8
2007-03-30 08:05:38 51°17.264 2°52.301 342.5 13.2 336 10.8
2007-03-30 08:05:43 51°17.281 2°52.289 342.5 13.1 336 10.8
2007-03-30 08:05:48 51°17.298 2°52.277 342.5 13.1 336 10.9
2007-03-30 08:05:53 51°17.314 2°52.265 342.2 13.2 335 10.7
2007-03-30 08:05:57 51°17.327 2°52.255 342 13.1 336 10.7
2007-03-30 08:06:03 51°17.347 2°52.241 342.2 13.1 336 10.9
2007-03-30 08:06:08 51°17.364 2°52.229 342.5 13.1 336 10.9
2007-03-30 08:06:12 51°17.377 2°52.22 342.5 13.1 336 10.8
2007-03-30 08:06:17 51°17.394 2°52.208 342.5 13.1 336 10.7
2007-03-30 08:06:23 51°17.414 2°52.194 342.5 13.1 335 10.9
2007-03-30 08:06:28 51°17.43 2°52.182 342.5 13.1 336 10.9
2007-03-30 08:06:33 51°17.447 2°52.17 342.5 13.1 336 11
2007-03-30 08:06:37 51°17.46 2°52.161 342.6 13.1 336 10.8
2007-03-30 08:06:43 51°17.48 2°52.146 342.6 13.1 336 10.9
2007-03-30 08:06:48 51°17.496 2°52.134 342.6 13.1 336 11
2007-03-30 08:06:53 51°17.513 2°52.123 342.6 13.1 336 11
2007-03-30 08:06:58 51°17.529 2°52.111 342.6 13.1 336 10.7
2007-03-30 08:07:03 51°17.546 2°52.099 342.6 13 336 10.9
2007-03-30 08:07:08 51°17.562 2°52.087 342.7 13.1 335 11.1
2007-03-30 08:07:13 51°17.579 2°52.075 342.6 13 335 10.9
2007-03-30 08:07:18 51°17.595 2°52.061 341.1 13 333 11
2007-03-30 08:07:22 51°17.607 2°52.051 340 13.1 332 11
2007-03-30 08:07:28 51°17.626 2°52.034 338.9 13.1 331 11
2007-03-30 08:07:33 51°17.642 2°52.02 338.2 13.1 331 10.8
2007-03-30 08:07:38 51°17.658 2°52.005 337.6 13.1 330 10.9
2007-03-30 08:07:42 51°17.671 2°51.994 337.3 13.1 331 10.8
2007-03-30 08:07:48 51°17.69 2°51.976 337 13.1 330 10.7
2007-03-30 08:07:53 51°17.705 2°51.962 336.7 13.1 329 10.8
2007-03-30 08:07:58 51°17.721 2°51.947 336.3 13.1 329 10.8
2007-03-30 08:08:03 51°17.736 2°51.931 336.2 13.1 329 10.6
2007-03-30 08:08:08 51°17.752 2°51.916 336.2 13.1 329 10.7
2007-03-30 08:08:13 51°17.767 2°51.902 336.6 13.1 329 10.6
2007-03-30 08:08:17 51°17.78 2°51.89 336.7 13.1 329 10.8
2007-03-30 08:08:23 51°17.799 2°51.872 337 13.1 331 10.7
2007-03-30 08:08:28 51°17.815 2°51.858 337.5 13.1 331 10.8
2007-03-30 08:08:32 51°17.828 2°51.847 338 13.1 332 10.6
2007-03-30 08:08:38 51°17.847 2°51.83 338 13.2 330 10.6
2007-03-30 08:08:43 51°17.862 2°51.815 337.2 13.1 329 10.7
2007-03-30 08:08:48 51°17.877 2°51.798 334.5 13.2 325 10.8
2007-03-30 08:08:53 51°17.892 2°51.781 332.4 13.2 324 10.8
2007-03-30 08:08:57 51°17.904 2°51.766 330.6 13.3 321 10.8
2007-03-30 08:09:03 51°17.921 2°51.744 329.4 13.3 321 10.8
2007-03-30 08:09:08 51°17.935 2°51.725 328 13.4 320 10.7
2007-03-30 08:09:13 51°17.949 2°51.706 327.1 13.4 319 10.9
2007-03-30 08:09:18 51°17.963 2°51.686 326.3 13.4 318 11
2007-03-30 08:09:23 51°17.977 2°51.666 326 13.4 319 11.2
2007-03-30 08:09:28 51°17.99 2°51.646 325.8 13.4 318 10.9
2007-03-30 08:09:33 51°18.005 2°51.626 325.8 13.5 319 11.3
2007-03-30 08:09:38 51°18.018 2°51.606 326.1 13.5 318 11.1
2007-03-30 08:09:43 51°18.032 2°51.587 326.3 13.5 319 11.3
2007-03-30 08:09:48 51°18.046 2°51.567 326.4 13.5 318 11.2
2007-03-30 08:09:52 51°18.058 2°51.551 326.6 13.5 319 11.4
2007-03-30 08:09:57 51°18.072 2°51.531 326.7 13.5 319 11.6
2007-03-30 08:10:03 51°18.089 2°51.507 326.7 13.5 318 11.8
2007-03-30 08:10:08 51°18.103 2°51.488 326.8 13.5 318 11.8
2007-03-30 08:10:12 51°18.114 2°51.472 326.7 13.5 318 12
2007-03-30 08:10:17 51°18.128 2°51.452 326.5 13.5 317 12
2007-03-30 08:10:23 51°18.145 2°51.428 326.3 13.5 319 12.3
2007-03-30 08:10:28 51°18.159 2°51.408 326.5 13.6 318 12.4
2007-03-30 08:10:33 51°18.173 2°51.389 326.7 13.5 319 12.4
2007-03-30 08:10:37 51°18.184 2°51.372 327 13.5 318 12.2
2007-03-30 08:10:43 51°18.201 2°51.349 327 13.5 319 12.5
2007-03-30 08:10:48 51°18.215 2°51.329 326.7 13.6 318 12.9
2007-03-30 08:10:53 51°18.23 2°51.309 326.6 13.6 319 12.9
2007-03-30 08:10:58 51°18.243 2°51.289 326.6 13.6 318 13
2007-03-30 08:11:02 51°18.255 2°51.273 326.4 13.6 319 13.1
2007-03-30 08:11:08 51°18.272 2°51.249 326.6 13.6 318 13.2
2007-03-30 08:11:13 51°18.286 2°51.229 326.9 13.6 319 13.3
2007-03-30 08:11:18 51°18.3 2°51.209 327 13.6 319 13.4
2007-03-30 08:11:22 51°18.311 2°51.193 326.8 13.6 318 13.5
2007-03-30 08:11:27 51°18.325 2°51.173 326.6 13.6 318 13.5
2007-03-30 08:11:33 51°18.342 2°51.149 326.6 13.6 318 13.6
2007-03-30 08:11:38 51°18.356 2°51.129 326.6 13.6 318 13.7
2007-03-30 08:11:43 51°18.37 2°51.109 326.7 13.6 318 13.9
2007-03-30 08:11:48 51°18.384 2°51.089 326.7 13.6 318 13.9
2007-03-30 08:11:53 51°18.398 2°51.069 326.9 13.6 318 13.9
2007-03-30 08:11:58 51°18.412 2°51.049 326.9 13.6 319 14.1
2007-03-30 08:12:03 51°18.426 2°51.028 327 13.6 318 14.2
2007-03-30 08:12:08 51°18.441 2°51.008 327.1 13.6 318 14.2
2007-03-30 08:12:12 51°18.452 2°50.992 327 13.6 318 14.3
2007-03-30 08:12:18 51°18.469 2°50.968 327.1 13.6 318 14.3
2007-03-30 08:12:23 51°18.483 2°50.948 327.3 13.6 318 14.3
2007-03-30 08:12:28 51°18.498 2°50.928 327.3 13.6 318 14.5
2007-03-30 08:12:32 51°18.509 2°50.912 327.1 13.6 318 14.5
2007-03-30 08:12:38 51°18.526 2°50.888 327.3 13.6 318 14.6
2007-03-30 08:12:43 51°18.54 2°50.868 327.5 13.6 319 14.7
2007-03-30 08:12:48 51°18.554 2°50.848 327.5 13.6 318 14.7
2007-03-30 08:12:53 51°18.568 2°50.828 327.3 13.6 318 14.8
2007-03-30 08:12:57 51°18.58 2°50.813 327.1 13.6 319 14.9
2007-03-30 08:13:03 51°18.597 2°50.788 327.1 13.6 318 14.9
2007-03-30 08:13:08 51°18.611 2°50.769 327 13.6 318 15
2007-03-30 08:13:13 51°18.625 2°50.749 326.9 13.6 319 14.9
2007-03-30 08:13:17 51°18.636 2°50.733 327.1 13.5 318 15.1
2007-03-30 08:13:22 51°18.65 2°50.713 326.8 13.2 318 15
2007-03-30 08:13:28 51°18.666 2°50.69 326.7 12.9 319 15
2007-03-30 08:13:33 51°18.679 2°50.672 327 12.3 318 15.1
2007-03-30 08:13:37 51°18.689 2°50.659 327.5 11.7 319 15.2
2007-03-30 08:13:43 51°18.703 2°50.639 327.9 11.3 319 15.2
2007-03-30 08:13:48 51°18.715 2°50.624 328.7 10.9 321 15.2
2007-03-30 08:13:53 51°18.726 2°50.609 329.5 10.6 321 15.2
2007-03-30 08:13:57 51°18.735 2°50.598 330.9 10.3 322 15.2
2007-03-30 08:14:03 51°18.749 2°50.582 331.6 10.1 323 15.3
2007-03-30 08:14:08 51°18.76 2°50.569 332.7 9.8 324 15.3
2007-03-30 08:14:13 51°18.771 2°50.556 333.8 9.7 322 15.3
2007-03-30 08:14:18 51°18.781 2°50.544 334.3 9.2 323 15.3
2007-03-30 08:14:22 51°18.788 2°50.533 330.6 9.1 312 15.2
2007-03-30 08:14:28 51°18.797 2°50.513 321.8 9.1 305 15.2
2007-03-30 08:14:33 51°18.803 2°50.496 314.8 9 301 15.1
2007-03-30 08:14:38 51°18.808 2°50.478 308.8 9 294 15.2
2007-03-30 08:14:42 51°18.812 2°50.463 302.9 8.9 290 15.2
2007-03-30 08:14:48 51°18.815 2°50.44 297.2 9 284 15
2007-03-30 08:14:53 51°18.818 2°50.42 292.1 9.1 282 15.3
2007-03-30 08:14:58 51°18.82 2°50.4 288.3 9.1 279 15.1
2007-03-30 08:15:02 51°18.821 2°50.384 286.2 9.2 278 14.8
2007-03-30 08:15:08 51°18.823 2°50.36 284.4 9.2 277 15
2007-03-30 08:15:13 51°18.825 2°50.339 283.8 9.3 277 15
2007-03-30 08:15:18 51°18.826 2°50.318 283.7 9.3 277 14.7
2007-03-30 08:15:23 51°18.828 2°50.298 284 9.4 278 14.7
2007-03-30 08:15:28 51°18.83 2°50.277 284.6 9.4 278 14.6
2007-03-30 08:15:33 51°18.832 2°50.257 285.2 9.4 279 14.4
2007-03-30 08:15:37 51°18.834 2°50.24 286.3 9.5 280 14.6
2007-03-30 08:15:42 51°18.836 2°50.219 287 9.5 280 14.4
2007-03-30 08:15:48 51°18.839 2°50.195 288.1 9.5 282 14.1
2007-03-30 08:15:53 51°18.842 2°50.174 289 9.5 282 14.3
2007-03-30 08:15:58 51°18.845 2°50.154 290.2 9.5 284 14.1
2007-03-30 08:16:02 51°18.848 2°50.137 291.5 9.5 285 13.9
2007-03-30 08:16:08 51°18.852 2°50.113 292.6 9.5 285 13.8
2007-03-30 08:16:13 51°18.856 2°50.093 293.8 9.5 287 13.8
2007-03-30 08:16:17 51°18.859 2°50.077 295.4 9.4 288 13.7
2007-03-30 08:16:23 51°18.864 2°50.054 296.5 9.4 290 13.3
2007-03-30 08:16:28 51°18.869 2°50.034 298 9.3 291 13.4
2007-03-30 08:16:33 51°18.873 2°50.016 299.5 8.9 291 13.3
2007-03-30 08:16:38 51°18.877 2°49.999 300.3 8.4 290 13.3
2007-03-30 08:16:43 51°18.88 2°49.982 297.9 7.9 283 13.3
2007-03-30 08:16:48 51°18.881 2°49.965 291.7 7.4 278 13.2
2007-03-30 08:16:53 51°18.881 2°49.95 284.8 7 272 13
2007-03-30 08:16:58 51°18.881 2°49.935 278.1 6.7 266 13.2
2007-03-30 08:17:03 51°18.879 2°49.921 271.8 6.3 260 13.2
2007-03-30 08:17:08 51°18.878 2°49.908 266.3 6 259 13.1
2007-03-30 08:17:12 51°18.876 2°49.898 263 5.7 255 13.1
2007-03-30 08:17:17 51°18.874 2°49.887 260.7 5.4 255 12.8
2007-03-30 08:17:23 51°18.871 2°49.873 258.9 5.2 252 12.7
2007-03-30 08:17:28 51°18.869 2°49.863 257.2 5.1 251 12.3
2007-03-30 08:17:33 51°18.866 2°49.853 255.5 4.9 249 12.2
2007-03-30 08:17:37 51°18.864 2°49.845 253.7 4.7 248 12.1
2007-03-30 08:17:43 51°18.861 2°49.834 252.8 4.5 248 12.2
2007-03-30 08:17:48 51°18.859 2°49.825 252.7 4.2 247 12.3
2007-03-30 08:17:53 51°18.857 2°49.817 254 3.9 249 12.4
2007-03-30 08:17:57 51°18.856 2°49.811 256.8 3.6 250 12.2
2007-03-30 08:18:02 51°18.855 2°49.805 260.2 3.2 253 12.3
2007-03-30 08:18:08 51°18.853 2°49.797 263.7 2.8 252 12.3
2007-03-30 08:18:13 51°18.852 2°49.792 267.3 2.4 255 12.3
2007-03-30 08:18:18 51°18.851 2°49.788 270.7 2.1 251 12.1
2007-03-30 08:18:22 51°18.851 2°49.785 274 1.7 248 12.2
2007-03-30 08:18:28 51°18.85 2°49.782 276.8 1.3 243 12.1
2007-03-30 08:18:33 51°18.849 2°49.78 278.7 1.1 229 12.2
2007-03-30 08:18:38 51°18.848 2°49.779 279.9 0.8 215 12.2
2007-03-30 08:18:42 51°18.847 2°49.779 280.8 0.8 190 12
2007-03-30 08:18:47 51°18.846 2°49.779 281.4 0.7 187 12.1
2007-03-30 08:18:53 51°18.845 2°49.778 282.1 0.8 191 12.3
2007-03-30 08:18:58 51°18.843 2°49.778 283.2 0.7 194 12.3
2007-03-30 08:19:03 51°18.842 2°49.777 284.5 0.9 197 12.3
2007-03-30 08:19:08 51°18.842 2°49.777 285.8 0.8 199 12.2
2007-03-30 08:19:13 51°18.84 2°49.776 287 0.9 201 12.2
2007-03-30 08:19:18 51°18.839 2°49.776 288.1 0.7 203 12.3
2007-03-30 08:19:23 51°18.838 2°49.775 289.2 0.8 203 12.3
2007-03-30 08:19:28 51°18.837 2°49.774 290.2 0.8 203 12.3
2007-03-30 08:19:32 51°18.836 2°49.773 291 0.9 204 12.2
2007-03-30 08:19:37 51°18.835 2°49.773 291.9 0.9 206 12.3
2007-03-30 08:19:43 51°18.834 2°49.771 292.6 1 209 12.1
2007-03-30 08:19:48 51°18.833 2°49.77 293.4 0.9 211 12.1
2007-03-30 08:19:53 51°18.832 2°49.769 293.9 1 210 12.4
2007-03-30 08:19:57 51°18.831 2°49.768 294.5 0.9 213 12.3
2007-03-30 08:20:03 51°18.83 2°49.767 294.9 1 214 12.5
2007-03-30 08:20:08 51°18.828 2°49.766 295.3 1 216 12.4
2007-03-30 08:20:13 51°18.827 2°49.764 295.7 1 217 12.4
2007-03-30 08:20:17 51°18.826 2°49.763 296.3 1 220 12.2
2007-03-30 08:20:23 51°18.825 2°49.761 296.8 1 220 12.3
2007-03-30 08:20:28 51°18.824 2°49.76 297.2 1 223 12.3
2007-03-30 08:20:33 51°18.823 2°49.758 297.9 1 224 12.4
2007-03-30 08:20:38 51°18.822 2°49.757 298.4 1 224 12.3
2007-03-30 08:20:42 51°18.821 2°49.755 299.1 1 226 12.1
2007-03-30 08:20:48 51°18.82 2°49.754 299.8 1 229 12.3
2007-03-30 08:20:53 51°18.819 2°49.752 300.7 1.1 227 12.3
2007-03-30 08:20:57 51°18.819 2°49.751 301.5 1.1 229 12.5
2007-03-30 08:21:03 51°18.817 2°49.749 302.5 1.1 229 12.4
2007-03-30 08:21:08 51°18.816 2°49.747 303.1 1.1 229 12.3
2007-03-30 08:21:12 51°18.815 2°49.745 303.9 1.1 231 12.4
2007-03-30 08:21:18 51°18.814 2°49.743 304.7 1.1 233 12.2
2007-03-30 08:21:23 51°18.813 2°49.741 305.6 1.1 232 12.4
2007-03-30 08:21:28 51°18.813 2°49.739 306.5 1.1 233 12.6
2007-03-30 08:21:33 51°18.812 2°49.737 307.5 1.1 236 12.4
2007-03-30 08:21:38 51°18.811 2°49.736 308.4 1.1 235 12.4
2007-03-30 08:21:43 51°18.81 2°49.734 309.3 1.1 234 12.3
2007-03-30 08:21:48 51°18.809 2°49.732 310.3 1.1 236 12.2
2007-03-30 08:21:53 51°18.808 2°49.73 311.2 1.1 235 12.3
2007-03-30 08:21:57 51°18.808 2°49.728 312.2 1.1 235 12.3
2007-03-30 08:22:02 51°18.807 2°49.726 313 1.1 237 12.3
2007-03-30 08:22:08 51°18.806 2°49.724 313.9 1.1 238 12.3
2007-03-30 08:22:13 51°18.805 2°49.722 314.7 1.1 237 12.5
2007-03-30 08:22:18 51°18.804 2°49.72 315.6 1 239 12.5
2007-03-30 08:22:23 51°18.803 2°49.718 316.4 1.1 238 12.6
2007-03-30 08:22:28 51°18.803 2°49.716 317.2 1 238 12.6
2007-03-30 08:22:33 51°18.802 2°49.713 318 1.1 238 12.4
2007-03-30 08:22:38 51°18.801 2°49.711 318.9 1.1 241 12.4
2007-03-30 08:22:43 51°18.8 2°49.709 319.6 1.1 240 12.5
2007-03-30 08:22:48 51°18.799 2°49.707 320.5 1 240 12.3
2007-03-30 08:22:53 51°18.798 2°49.705 321.2 1.1 241 12.5
2007-03-30 08:22:58 51°18.798 2°49.703 321.8 1.1 242 12.4
2007-03-30 08:23:02 51°18.797 2°49.702 322.6 1.1 242 12.4
2007-03-30 08:23:08 51°18.796 2°49.699 323.3 1.1 244 12.4
2007-03-30 08:23:13 51°18.796 2°49.697 324 1.1 242 12.4
2007-03-30 08:23:18 51°18.795 2°49.695 324.9 1.1 244 12.4
2007-03-30 08:23:23 51°18.795 2°49.693 325.6 1.1 246 12.5
2007-03-30 08:23:28 51°18.794 2°49.691 326.4 1 246 12.6
2007-03-30 08:23:33 51°18.793 2°49.689 326.9 1 245 12.5
2007-03-30 08:23:38 51°18.793 2°49.687 327.6 1.1 245 12.3
2007-03-30 08:23:43 51°18.793 2°49.686 328.5 1 247 12.4
2007-03-30 08:23:48 51°18.792 2°49.684 329.2 1 244 12.3
2007-03-30 08:23:53 51°18.792 2°49.682 330 1 246 12.2
2007-03-30 08:23:57 51°18.792 2°49.68 330.8 0.9 248 12.3
2007-03-30 08:24:03 51°18.791 2°49.677 331.6 1 248 12.3
2007-03-30 08:24:08 51°18.79 2°49.675 332.2 1 246 12.2
2007-03-30 08:24:13 51°18.789 2°49.673 332.8 1 246 12.2
2007-03-30 08:24:17 51°18.789 2°49.671 333.6 0.9 248 12.4
2007-03-30 08:24:23 51°18.788 2°49.669 334.2 1 249 12.3
2007-03-30 08:24:28 51°18.787 2°49.667 334.7 1 248 12.5
2007-03-30 08:24:32 51°18.787 2°49.665 335.4 1 247 12.3
2007-03-30 08:24:37 51°18.786 2°49.663 336 1 248 12.2
2007-03-30 08:24:43 51°18.786 2°49.66 336.7 1 249 12.4
2007-03-30 08:24:48 51°18.785 2°49.658 337.5 1 249 12.3
2007-03-30 08:24:53 51°18.785 2°49.657 338.2 1 251 12.1
2007-03-30 08:24:57 51°18.784 2°49.655 338.8 1 248 12.2
2007-03-30 08:25:03 51°18.784 2°49.653 339.5 1 249 12.1
2007-03-30 08:25:08 51°18.783 2°49.651 340.1 0.9 249 12.2
2007-03-30 08:25:13 51°18.783 2°49.649 340.7 0.9 250 12.1
2007-03-30 08:25:18 51°18.783 2°49.646 341.1 1 250 12.2
2007-03-30 08:25:23 51°18.782 2°49.644 341.8 1 248 12.1
2007-03-30 08:25:28 51°18.782 2°49.643 342.5 0.9 249 12.2
2007-03-30 08:25:33 51°18.781 2°49.641 343.2 1 251 12.1
2007-03-30 08:25:38 51°18.781 2°49.639 343.6 0.9 251 12.2
2007-03-30 08:25:43 51°18.78 2°49.637 344 0.9 250 12.1
2007-03-30 08:25:48 51°18.78 2°49.635 344.3 0.9 251 12.1
2007-03-30 08:25:52 51°18.78 2°49.633 344.9 0.9 256 12
2007-03-30 08:25:58 51°18.78 2°49.631 345.8 0.9 268 12.1
2007-03-30 08:26:03 51°18.78 2°49.629 347.1 1 278 12.1
2007-03-30 08:26:08 51°18.78 2°49.627 348.8 1 286 12.1
2007-03-30 08:26:12 51°18.781 2°49.625 350.9 1.1 296 12.1
2007-03-30 08:26:18 51°18.782 2°49.623 352.9 1.2 308 12.1
2007-03-30 08:26:23 51°18.783 2°49.621 355.5 1.3 321 12.1
2007-03-30 08:26:28 51°18.785 2°49.619 358.7 1.6 332 12.1
2007-03-30 08:26:33 51°18.788 2°49.618 2.5 1.9 341 12.1
2007-03-30 08:26:37 51°18.79 2°49.617 7.2 2.1 353 12
2007-03-30 08:26:43 51°18.794 2°49.617 12.3 2.4 1 12
2007-03-30 08:26:48 51°18.797 2°49.618 17.8 2.6 9 11.9
2007-03-30 08:26:53 51°18.801 2°49.62 22.4 2.7 17 12.1
2007-03-30 08:26:58 51°18.804 2°49.623 29.3 2.9 26 12
2007-03-30 08:27:03 51°18.808 2°49.626 34.8 3.1 32 12
2007-03-30 08:27:08 51°18.811 2°49.631 40.6 3.4 40 12.1
2007-03-30 08:27:13 51°18.815 2°49.637 46.4 4 45 12
2007-03-30 08:27:18 51°18.819 2°49.646 51.7 4.6 55 11.9
2007-03-30 08:27:22 51°18.822 2°49.653 57.8 5.2 54 12.1
2007-03-30 08:27:28 51°18.827 2°49.666 59.7 5.7 57 12.1
2007-03-30 08:27:33 51°18.832 2°49.677 60.2 6.2 55 12.2
2007-03-30 08:27:38 51°18.838 2°49.689 60 6.6 55 12.3
2007-03-30 08:27:43 51°18.844 2°49.701 58.2 7 50 12.1
2007-03-30 08:27:48 51°18.851 2°49.713 53.2 7.4 46 12.3
2007-03-30 08:27:53 51°18.858 2°49.725 50 7.9 46 12.3
2007-03-30 08:27:58 51°18.866 2°49.739 50.3 8.4 47 12.2
2007-03-30 08:28:03 51°18.874 2°49.753 51.3 8.8 47 12.3
2007-03-30 08:28:08 51°18.883 2°49.768 52.1 9.2 48 12.2
2007-03-30 08:28:12 51°18.89 2°49.781 52.5 9.7 49 12.2
2007-03-30 08:28:18 51°18.901 2°49.802 53.3 10.3 49 12
2007-03-30 08:28:23 51°18.911 2°49.82 53.7 10.8 50 11.9
2007-03-30 08:28:28 51°18.921 2°49.839 54 11.3 50 12
2007-03-30 08:28:32 51°18.929 2°49.855 54.4 11.6 50 12.3
2007-03-30 08:28:38 51°18.941 2°49.879 54.5 11.9 50 12.2
2007-03-30 08:28:43 51°18.952 2°49.899 54.4 12.1 49 12.4
2007-03-30 08:28:48 51°18.963 2°49.92 54.4 12.3 50 12.6
2007-03-30 08:28:53 51°18.974 2°49.941 54.4 12.4 48 12.7
2007-03-30 08:28:57 51°18.983 2°49.957 53.8 12.5 50 13.1
2007-03-30 08:29:03 51°18.996 2°49.983 54.2 12.6 49 12.8
2007-03-30 08:29:08 51°19.007 2°50.004 54.2 12.6 50 12.9
2007-03-30 08:29:13 51°19.019 2°50.025 54.6 12.6 50 12.9
2007-03-30 08:29:18 51°19.03 2°50.047 54.6 12.6 50 12.9
2007-03-30 08:29:22 51°19.039 2°50.064 54.6 12.6 49 13.2
2007-03-30 08:29:28 51°19.052 2°50.089 54.3 12.6 50 12.9
2007-03-30 08:29:33 51°19.064 2°50.111 54.7 12.7 50 13.1
2007-03-30 08:29:37 51°19.073 2°50.128 54.7 12.6 50 13
2007-03-30 08:29:43 51°19.086 2°50.154 54.4 12.6 50 13.1
2007-03-30 08:29:48 51°19.098 2°50.175 54.3 12.7 50 13.1
2007-03-30 08:29:53 51°19.109 2°50.197 54.2 12.7 51 13.4
2007-03-30 08:29:58 51°19.12 2°50.219 54.6 12.7 50 13.2
2007-03-30 08:30:03 51°19.131 2°50.24 54.5 12.7 50 13.5
2007-03-30 08:30:08 51°19.143 2°50.261 53.9 12.6 48 13.5
2007-03-30 08:30:13 51°19.155 2°50.282 53.7 12.7 50 13.2
2007-03-30 08:30:18 51°19.166 2°50.304 54 12.7 50 13.4
2007-03-30 08:30:23 51°19.177 2°50.325 54.4 12.7 50 13.6
2007-03-30 08:30:28 51°19.189 2°50.347 54.4 12.7 49 13.6
2007-03-30 08:30:33 51°19.2 2°50.368 54.2 12.7 50 13.5
2007-03-30 08:30:38 51°19.212 2°50.39 54.3 12.7 50 13.8
2007-03-30 08:30:42 51°19.221 2°50.407 54.4 12.7 49 13.7
2007-03-30 08:30:48 51°19.235 2°50.433 54.5 12.8 50 13.7
2007-03-30 08:30:53 51°19.246 2°50.454 54.6 12.7 49 13.8
2007-03-30 08:30:58 51°19.258 2°50.476 54.4 12.7 50 13.7
2007-03-30 08:31:03 51°19.269 2°50.497 54.4 12.7 49 13.8
2007-03-30 08:31:08 51°19.281 2°50.519 54.3 12.7 50 13.9
2007-03-30 08:31:13 51°19.292 2°50.54 54.4 12.7 49 13.9
2007-03-30 08:31:18 51°19.303 2°50.562 54.5 12.7 50 13.9
2007-03-30 08:31:23 51°19.315 2°50.583 54.3 12.6 49 13.9
2007-03-30 08:31:28 51°19.326 2°50.604 54.1 12.7 50 13.8
2007-03-30 08:31:33 51°19.338 2°50.625 54 12.7 48 13.9
2007-03-30 08:31:38 51°19.35 2°50.647 53.8 12.7 50 13.9
2007-03-30 08:31:42 51°19.359 2°50.664 54.1 12.6 49 14.1
2007-03-30 08:31:48 51°19.372 2°50.688 54 12.1 49 14.2
2007-03-30 08:31:53 51°19.382 2°50.707 54.1 11.3 50 14
2007-03-30 08:31:58 51°19.392 2°50.725 54.4 10.5 50 14.3
2007-03-30 08:32:03 51°19.4 2°50.742 54.6 9.8 50 14.3
2007-03-30 08:32:08 51°19.409 2°50.757 54.9 9.2 50 14.5
2007-03-30 08:32:13 51°19.416 2°50.772 55 8.6 51 14.4
2007-03-30 08:32:18 51°19.423 2°50.786 55.3 8.1 50 14.4
2007-03-30 08:32:23 51°19.43 2°50.799 55.3 7.6 51 14.7
2007-03-30 08:32:28 51°19.436 2°50.812 55.8 7.2 50 14.7
2007-03-30 08:32:33 51°19.442 2°50.824 56 6.8 52 14.9
2007-03-30 08:32:38 51°19.448 2°50.835 56.1 6.4 51 14.7
2007-03-30 08:32:43 51°19.452 2°50.845 56.3 6.1 52 14.8
2007-03-30 08:32:48 51°19.458 2°50.855 56.3 5.8 51 15.1
2007-03-30 08:32:53 51°19.462 2°50.865 56.3 5.5 52 14.8
2007-03-30 08:32:58 51°19.467 2°50.874 56.1 5.3 52 14.8
2007-03-30 08:33:03 51°19.471 2°50.883 56.3 5 52 14.9
2007-03-30 08:33:08 51°19.475 2°50.891 56.2 4.8 52 15.1
2007-03-30 08:33:12 51°19.478 2°50.898 56.2 4.6 52 15
2007-03-30 08:33:17 51°19.482 2°50.905 56.3 4.4 52 15
2007-03-30 08:33:23 51°19.486 2°50.914 56.1 4.2 53 15
2007-03-30 08:33:28 51°19.489 2°50.921 56.5 4 52 15
2007-03-30 08:33:33 51°19.492 2°50.928 57.3 3.8 55 14.9
2007-03-30 08:33:37 51°19.495 2°50.933 58.8 3.6 56 15
2007-03-30 08:33:43 51°19.497 2°50.941 60.4 3.4 59 15.3
2007-03-30 08:33:48 51°19.5 2°50.948 62.5 3.2 62 15.1
2007-03-30 08:33:53 51°19.501 2°50.954 64.7 3 63 15.2
2007-03-30 08:33:58 51°19.503 2°50.96 67.3 2.9 67 15.3
2007-03-30 08:34:02 51°19.504 2°50.964 69.4 2.8 68 15.1
2007-03-30 08:34:08 51°19.506 2°50.971 71.1 2.6 71 15.3
2007-03-30 08:34:13 51°19.507 2°50.976 72.5 2.6 72 15.3
2007-03-30 08:34:18 51°19.508 2°50.982 73.4 2.5 75 15.1
2007-03-30 08:34:22 51°19.508 2°50.986 74.7 2.5 73 15.2
2007-03-30 08:34:27 51°19.509 2°50.991 75.6 2.5 78 15.3
2007-03-30 08:34:33 51°19.51 2°50.998 76.2 2.6 78 15.3
2007-03-30 08:34:38 51°19.511 2°51.004 76.9 2.7 78 15.3
2007-03-30 08:34:43 51°19.511 2°51.01 77.3 2.7 79 15.4
2007-03-30 08:34:48 51°19.512 2°51.016 77.6 2.8 78 15.3
2007-03-30 08:34:52 51°19.513 2°51.021 77.7 2.8 78 15.6
2007-03-30 08:34:58 51°19.514 2°51.029 77.6 2.9 80 15.2
2007-03-30 08:35:03 51°19.514 2°51.035 77.6 2.9 78 15.3
2007-03-30 08:35:08 51°19.515 2°51.041 77.7 2.9 79 15.6
2007-03-30 08:35:13 51°19.516 2°51.048 77.6 3 79 15.6
2007-03-30 08:35:18 51°19.517 2°51.054 77.5 3 78 15.5
2007-03-30 08:35:23 51°19.518 2°51.061 77.3 3 78 15.7
2007-03-30 08:35:28 51°19.519 2°51.067 77.1 3.1 78 15.6
2007-03-30 08:35:32 51°19.52 2°51.073 76.9 3.2 77 15.6
2007-03-30 08:35:38 51°19.521 2°51.081 76.5 3.3 77 15.8
2007-03-30 08:35:43 51°19.522 2°51.089 76.2 3.4 75 15.7
2007-03-30 08:35:48 51°19.523 2°51.096 75.6 3.5 76 15.9
2007-03-30 08:35:53 51°19.525 2°51.103 74.9 3.5 74 15.8
2007-03-30 08:35:57 51°19.526 2°51.11 74.5 3.6 73 15.8
2007-03-30 08:36:03 51°19.528 2°51.119 73.6 3.7 73 15.9
2007-03-30 08:36:08 51°19.529 2°51.127 72.9 3.8 70 16
2007-03-30 08:36:13 51°19.531 2°51.135 72.3 3.8 71 15.9
2007-03-30 08:36:18 51°19.533 2°51.143 71.5 3.9 69 16
2007-03-30 08:36:23 51°19.535 2°51.151 71 3.9 69 16
2007-03-30 08:36:28 51°19.537 2°51.159 70.3 4 68 16.1
2007-03-30 08:36:33 51°19.539 2°51.167 69.6 4 67 16.1
2007-03-30 08:36:38 51°19.542 2°51.175 69.1 4 67 16
2007-03-30 08:36:43 51°19.544 2°51.183 68.3 4 66 16
2007-03-30 08:36:48 51°19.546 2°51.192 67.8 4 64 16
2007-03-30 08:36:53 51°19.549 2°51.2 67.2 4 65 16.1
2007-03-30 08:36:58 51°19.551 2°51.208 66.7 4 64 16
2007-03-30 08:37:03 51°19.554 2°51.216 66.5 4 64 16.1
2007-03-30 08:37:08 51°19.556 2°51.224 66 3.9 63 16
2007-03-30 08:37:13 51°19.559 2°51.231 65.8 3.8 63 16.1
2007-03-30 08:37:18 51°19.561 2°51.239 65.4 3.8 63 16.1
2007-03-30 08:37:23 51°19.563 2°51.246 65 3.7 62 16.1
2007-03-30 08:37:28 51°19.566 2°51.253 64.7 3.6 62 16.1
2007-03-30 08:37:33 51°19.569 2°51.26 64.3 3.6 61 16.1
2007-03-30 08:37:38 51°19.571 2°51.267 63.5 3.6 60 16.1
2007-03-30 08:37:43 51°19.574 2°51.274 62.9 3.5 59 16.2
2007-03-30 08:37:48 51°19.576 2°51.28 62.3 3.5 58 16.3
2007-03-30 08:37:53 51°19.579 2°51.287 61.5 3.5 57 16.1
2007-03-30 08:37:58 51°19.581 2°51.293 60.8 3.4 55 16.3
2007-03-30 08:38:03 51°19.584 2°51.299 59.9 3.4 55 16.3
2007-03-30 08:38:08 51°19.587 2°51.305 58.9 3.4 54 16.2
2007-03-30 08:38:13 51°19.59 2°51.311 58.2 3.4 53 16.1
2007-03-30 08:38:18 51°19.593 2°51.317 57.4 3.4 52 16.1
2007-03-30 08:38:23 51°19.596 2°51.323 57 3.3 52 16
2007-03-30 08:38:28 51°19.599 2°51.329 56.5 3.3 50 16.3
2007-03-30 08:38:33 51°19.602 2°51.335 55.8 3.3 51 16.2
2007-03-30 08:38:38 51°19.605 2°51.34 55.1 3.3 49 16.1
2007-03-30 08:38:43 51°19.608 2°51.346 54.6 3.3 49 16.2
2007-03-30 08:38:48 51°19.611 2°51.351 54.1 3.3 49 16.2
2007-03-30 08:38:53 51°19.614 2°51.357 53.7 3.3 49 16.2
2007-03-30 08:38:58 51°19.617 2°51.362 53.8 3.3 49 16.3
2007-03-30 08:39:03 51°19.62 2°51.368 54.1 3.3 49 16.2
2007-03-30 08:39:08 51°19.623 2°51.373 54.2 3.3 49 16.3
2007-03-30 08:39:13 51°19.626 2°51.379 54.4 3.3 49 16.2
2007-03-30 08:39:18 51°19.629 2°51.384 54.8 3.3 50 16.3
2007-03-30 08:39:23 51°19.632 2°51.39 55.1 3.3 49 16.3
2007-03-30 08:39:28 51°19.634 2°51.395 55.5 3.3 50 16.3
2007-03-30 08:39:33 51°19.637 2°51.401 55.8 3.3 51 16.2
2007-03-30 08:39:38 51°19.64 2°51.407 56.1 3.3 51 16.3
2007-03-30 08:39:43 51°19.643 2°51.412 56.6 3.3 51 16.2
2007-03-30 08:39:48 51°19.646 2°51.418 56.9 3.3 52 16.3
2007-03-30 08:39:53 51°19.649 2°51.424 57.2 3.3 51 16.3
2007-03-30 08:39:58 51°19.652 2°51.43 57.3 3.3 52 16.3
2007-03-30 08:40:03 51°19.655 2°51.435 57.5 3.3 52 16.3
2007-03-30 08:40:08 51°19.657 2°51.441 57.7 3.3 53 16.3
2007-03-30 08:40:13 51°19.66 2°51.447 58.1 3.3 53 16.3
2007-03-30 08:40:18 51°19.663 2°51.453 58.4 3.3 54 16.3
2007-03-30 08:40:23 51°19.665 2°51.459 58.6 3.3 54 16.3
2007-03-30 08:40:28 51°19.668 2°51.464 58.9 3.2 54 16.3
2007-03-30 08:40:33 51°19.671 2°51.47 59.3 3.2 54 16.3
2007-03-30 08:40:37 51°19.673 2°51.475 59.5 3.3 55 16.3
2007-03-30 08:40:43 51°19.676 2°51.482 59.8 3.3 56 16.4
2007-03-30 08:40:48 51°19.679 2°51.488 60.2 3.3 55 16.4
2007-03-30 08:40:53 51°19.681 2°51.495 60.3 3.3 57 16.3
2007-03-30 08:40:58 51°19.683 2°51.501 60.7 3.3 57 16.4
2007-03-30 08:41:03 51°19.686 2°51.507 60.9 3.3 57 16.4
2007-03-30 08:41:08 51°19.688 2°51.513 61.1 3.3 57 16.4
2007-03-30 08:41:13 51°19.69 2°51.519 61.3 3.3 57 16.3
2007-03-30 08:41:18 51°19.693 2°51.525 61.6 3.3 58 16.4
2007-03-30 08:41:23 51°19.695 2°51.531 61.6 3.3 58 16.4
2007-03-30 08:41:28 51°19.698 2°51.537 61 3.3 58 16.4
2007-03-30 08:41:33 51°19.7 2°51.543 60.6 3.3 56 16.3
2007-03-30 08:41:38 51°19.703 2°51.549 60.1 3.3 56 16.5
2007-03-30 08:41:42 51°19.705 2°51.554 59.5 3.3 55 16.4
2007-03-30 08:41:48 51°19.708 2°51.561 58.6 3.3 53 16.3
2007-03-30 08:41:52 51°19.71 2°51.566 57.8 3.3 53 16.3
2007-03-30 08:41:58 51°19.714 2°51.572 56.9 3.3 52 16.5
2007-03-30 08:42:03 51°19.716 2°51.578 55.9 3.3 50 16.4
2007-03-30 08:42:08 51°19.719 2°51.583 55.1 3.3 50 16.3
2007-03-30 08:42:13 51°19.722 2°51.589 54.2 3.3 49 16.4
2007-03-30 08:42:17 51°19.725 2°51.593 53.4 3.3 49 16.3
2007-03-30 08:42:23 51°19.728 2°51.6 52.6 3.3 47 16.4
2007-03-30 08:42:28 51°19.731 2°51.605 51.9 3.3 47 16.4
2007-03-30 08:42:33 51°19.735 2°51.61 50.9 3.3 45 16.4
2007-03-30 08:42:38 51°19.738 2°51.615 50.1 3.3 44 16.4
2007-03-30 08:42:43 51°19.742 2°51.62 49.3 3.3 43 16.5
2007-03-30 08:42:48 51°19.745 2°51.624 48.5 3.3 43 16.5
2007-03-30 08:42:53 51°19.748 2°51.629 47.4 3.3 41 16.5
2007-03-30 08:42:57 51°19.751 2°51.633 46.5 3.3 41 16.3
2007-03-30 08:43:03 51°19.755 2°51.639 45.7 3.3 39 16.6
2007-03-30 08:43:08 51°19.759 2°51.643 45.1 3.3 40 16.5
2007-03-30 08:43:13 51°19.762 2°51.648 45 3.3 38 16.4
2007-03-30 08:43:18 51°19.766 2°51.652 44.9 3.3 39 16.5
2007-03-30 08:43:23 51°19.77 2°51.657 44.7 3.3 38 16.6
2007-03-30 08:43:28 51°19.773 2°51.661 44.8 3.3 38 16.4
2007-03-30 08:43:33 51°19.777 2°51.665 44.8 3.3 37 16.5
2007-03-30 08:43:38 51°19.781 2°51.67 44.9 3.3 38 16.4
2007-03-30 08:43:43 51°19.784 2°51.674 45 3.3 39 16.5
2007-03-30 08:43:48 51°19.788 2°51.679 45.6 3.3 39 16.5
2007-03-30 08:43:53 51°19.791 2°51.684 46.4 3.3 40 16.5
2007-03-30 08:43:58 51°19.794 2°51.688 47.6 3.2 43 16.5
2007-03-30 08:44:03 51°19.798 2°51.693 48.9 3.2 43 16.5
2007-03-30 08:44:08 51°19.801 2°51.698 50 3.2 45 16.6
2007-03-30 08:44:12 51°19.803 2°51.702 51.2 3.2 47 16.5
2007-03-30 08:44:18 51°19.807 2°51.709 52.6 3.2 47 16.6
2007-03-30 08:44:23 51°19.81 2°51.714 53.7 3.2 49 16.7
2007-03-30 08:44:28 51°19.813 2°51.719 55 3.2 50 16.6
2007-03-30 08:44:33 51°19.816 2°51.725 56.1 3.2 52 16.6
2007-03-30 08:44:38 51°19.818 2°51.731 57.2 3.2 53 16.6
2007-03-30 08:44:43 51°19.821 2°51.736 58.2 3.2 54 16.7
2007-03-30 08:44:48 51°19.823 2°51.742 58.9 3.2 55 16.8
2007-03-30 08:44:53 51°19.826 2°51.748 59.3 3.2 55 16.8
2007-03-30 08:44:58 51°19.829 2°51.754 59.6 3.3 55 16.8
2007-03-30 08:45:03 51°19.831 2°51.76 59.8 3.3 57 16.7
2007-03-30 08:45:08 51°19.833 2°51.766 59.9 3.3 56 16.9
2007-03-30 08:45:13 51°19.836 2°51.772 60 3.3 57 16.8
2007-03-30 08:45:18 51°19.839 2°51.778 60 3.3 57 16.9
2007-03-30 08:45:22 51°19.841 2°51.783 60.1 3.3 57 16.9
2007-03-30 08:45:28 51°19.844 2°51.791 60 3.3 56 16.9
2007-03-30 08:45:33 51°19.846 2°51.797 59.7 3.3 56 17
2007-03-30 08:45:38 51°19.849 2°51.803 59.5 3.3 57 17
2007-03-30 08:45:43 51°19.851 2°51.809 59.3 3.3 55 17
2007-03-30 08:45:48 51°19.854 2°51.815 58.9 3.4 57 17.1
2007-03-30 08:45:53 51°19.857 2°51.821 58.5 3.3 56 17
2007-03-30 08:45:58 51°19.859 2°51.827 58 3.4 55 17.3
2007-03-30 08:46:03 51°19.862 2°51.833 57.5 3.3 54 17
2007-03-30 08:46:08 51°19.865 2°51.839 57 3.4 53 17.1
2007-03-30 08:46:13 51°19.868 2°51.845 56.6 3.4 54 17.1
2007-03-30 08:46:18 51°19.87 2°51.851 56 3.3 53 17.2
2007-03-30 08:46:23 51°19.873 2°51.857 55.7 3.3 52 17.1
2007-03-30 08:46:28 51°19.876 2°51.862 55.2 3.4 51 17.1
2007-03-30 08:46:32 51°19.879 2°51.867 54.9 3.4 51 17
2007-03-30 08:46:38 51°19.882 2°51.874 54.6 3.3 51 17
2007-03-30 08:46:43 51°19.885 2°51.879 54.2 3.3 51 17.1
2007-03-30 08:46:48 51°19.888 2°51.885 53.8 3.3 50 17.1
2007-03-30 08:46:53 51°19.891 2°51.891 53.7 3.4 50 17.2
2007-03-30 08:46:57 51°19.894 2°51.895 53.1 3.4 49 17.1
2007-03-30 08:47:03 51°19.898 2°51.902 52.9 3.4 49 17
2007-03-30 08:47:08 51°19.9 2°51.908 52.6 3.4 49 17.1
2007-03-30 08:47:13 51°19.904 2°51.913 52.3 3.4 48 17.1
2007-03-30 08:47:18 51°19.907 2°51.919 52 3.4 48 17
2007-03-30 08:47:23 51°19.91 2°51.924 51.6 3.4 48 17
2007-03-30 08:47:28 51°19.913 2°51.93 51.5 3.4 48 17
2007-03-30 08:47:33 51°19.916 2°51.935 51.4 3.3 47 17
2007-03-30 08:47:38 51°19.919 2°51.941 51.5 3.3 47 17
2007-03-30 08:47:42 51°19.922 2°51.945 51.5 3.4 46 17
2007-03-30 08:47:48 51°19.926 2°51.951 51.6 3.3 47 17
2007-03-30 08:47:53 51°19.929 2°51.957 51.7 3.3 48 17
2007-03-30 08:47:58 51°19.932 2°51.962 51.8 3.4 48 17
2007-03-30 08:48:02 51°19.935 2°51.967 52.1 3.3 46 17.1
2007-03-30 08:48:08 51°19.938 2°51.973 52.2 3.4 48 17
2007-03-30 08:48:13 51°19.941 2°51.979 52.4 3.3 48 16.9
2007-03-30 08:48:18 51°19.945 2°51.984 53 3.4 50 17
2007-03-30 08:48:23 51°19.948 2°51.99 53.5 3.4 50 17
2007-03-30 08:48:28 51°19.951 2°51.996 54.3 3.4 51 17
2007-03-30 08:48:33 51°19.953 2°52.001 55.3 3.3 50 16.9
2007-03-30 08:48:38 51°19.956 2°52.007 56.2 3.3 52 16.9
2007-03-30 08:48:43 51°19.959 2°52.013 56.8 3.4 52 16.9
2007-03-30 08:48:48 51°19.962 2°52.019 57.7 3.4 53 17
2007-03-30 08:48:53 51°19.965 2°52.025 58.2 3.3 54 16.9
2007-03-30 08:48:58 51°19.968 2°52.031 58.8 3.3 55 17
2007-03-30 08:49:02 51°19.97 2°52.036 59.5 3.3 55 17
2007-03-30 08:49:08 51°19.973 2°52.043 59.9 3.4 56 17
2007-03-30 08:49:13 51°19.976 2°52.049 60.2 3.4 56 17.1
2007-03-30 08:49:18 51°19.978 2°52.055 60.7 3.4 55 17
2007-03-30 08:49:23 51°19.981 2°52.061 60.7 3.3 56 17
2007-03-30 08:49:28 51°19.983 2°52.068 61 3.4 55 17
2007-03-30 08:49:33 51°19.986 2°52.074 61.2 3.4 57 17
2007-03-30 08:49:37 51°19.988 2°52.079 61.5 3.4 57 17.1
2007-03-30 08:49:43 51°19.991 2°52.086 61.7 3.4 56 17.1
2007-03-30 08:49:48 51°19.994 2°52.092 61.8 3.4 56 17.2
2007-03-30 08:49:53 51°19.996 2°52.099 61.9 3.4 56 17.2
2007-03-30 08:49:58 51°19.998 2°52.105 62 3.4 58 17.2
2007-03-30 08:50:02 51°20.001 2°52.11 62.2 3.4 57 17.3
2007-03-30 08:50:08 51°20.004 2°52.118 62.3 3.4 59 17.4
2007-03-30 08:50:13 51°20.006 2°52.124 62.4 3.4 58 17.4
2007-03-30 08:50:17 51°20.008 2°52.129 62.4 3.4 58 17.5
2007-03-30 08:50:23 51°20.011 2°52.137 62.4 3.4 58 17.5
2007-03-30 08:50:28 51°20.013 2°52.143 62.6 3.4 58 17.6
2007-03-30 08:50:33 51°20.016 2°52.149 62.8 3.4 57 17.8
2007-03-30 08:50:38 51°20.018 2°52.156 62.9 3.4 59 17.6
2007-03-30 08:50:43 51°20.02 2°52.162 63.1 3.4 59 17.6
2007-03-30 08:50:48 51°20.023 2°52.169 63.1 3.4 59 17.8
2007-03-30 08:50:53 51°20.025 2°52.175 63.2 3.4 59 17.7
2007-03-30 08:50:58 51°20.028 2°52.182 63.3 3.4 60 17.7
2007-03-30 08:51:03 51°20.03 2°52.188 63.3 3.4 60 17.7
2007-03-30 08:51:08 51°20.032 2°52.195 63.2 3.4 59 17.7
2007-03-30 08:51:13 51°20.035 2°52.201 63.1 3.4 59 17.8
2007-03-30 08:51:18 51°20.037 2°52.207 62.8 3.4 58 17.8
2007-03-30 08:51:22 51°20.039 2°52.212 62.6 3.4 57 17.8
2007-03-30 08:51:28 51°20.042 2°52.22 62.4 3.4 57 17.7
2007-03-30 08:51:33 51°20.045 2°52.226 62.2 3.4 57 17.8
2007-03-30 08:51:38 51°20.047 2°52.233 62 3.4 57 17.8
2007-03-30 08:51:43 51°20.05 2°52.239 61.7 3.4 56 17.7
2007-03-30 08:51:48 51°20.052 2°52.245 61.4 3.4 57 17.8
2007-03-30 08:51:53 51°20.055 2°52.251 61.2 3.4 55 17.7
2007-03-30 08:51:58 51°20.058 2°52.258 61 3.4 56 17.6
2007-03-30 08:52:03 51°20.06 2°52.264 60.7 3.4 55 17.7
2007-03-30 08:52:08 51°20.063 2°52.27 60.5 3.4 55 17.7
2007-03-30 08:52:13 51°20.065 2°52.276 60.5 3.4 55 17.7
2007-03-30 08:52:18 51°20.068 2°52.282 60.3 3.4 54 17.7
2007-03-30 08:52:22 51°20.07 2°52.287 60.2 3.4 55 17.7
2007-03-30 08:52:28 51°20.073 2°52.295 60.2 3.4 55 17.7
2007-03-30 08:52:33 51°20.076 2°52.301 60.1 3.4 53 17.7
2007-03-30 08:52:38 51°20.079 2°52.307 59.9 3.4 54 17.7
2007-03-30 08:52:42 51°20.081 2°52.312 59.8 3.4 53 17.7
2007-03-30 08:52:48 51°20.085 2°52.319 59.7 3.4 55 17.7
2007-03-30 08:52:53 51°20.087 2°52.326 59.7 3.4 54 17.7
2007-03-30 08:52:58 51°20.09 2°52.332 59.7 3.4 54 17.7
2007-03-30 08:53:03 51°20.093 2°52.338 59.7 3.4 54 17.7
2007-03-30 08:53:08 51°20.095 2°52.344 59.6 3.4 55 17.7
2007-03-30 08:53:13 51°20.098 2°52.35 59.5 3.4 54 17.8
2007-03-30 08:53:18 51°20.101 2°52.356 59.5 3.4 54 17.7
2007-03-30 08:53:23 51°20.104 2°52.362 59.5 3.4 54 17.7
2007-03-30 08:53:28 51°20.106 2°52.368 59.4 3.4 54 17.7
2007-03-30 08:53:33 51°20.109 2°52.374 59.4 3.4 54 17.7
2007-03-30 08:53:37 51°20.111 2°52.379 59.4 3.4 54 17.7
2007-03-30 08:53:43 51°20.115 2°52.387 59.3 3.4 53 17.7
2007-03-30 08:53:48 51°20.118 2°52.393 59.3 3.4 54 17.7
2007-03-30 08:53:53 51°20.12 2°52.399 59.1 3.4 54 17.7
2007-03-30 08:53:57 51°20.123 2°52.404 59 3.4 52 17.7
2007-03-30 08:54:03 51°20.126 2°52.411 58.8 3.4 53 17.7
2007-03-30 08:54:08 51°20.129 2°52.417 58.7 3.4 53 17.7
2007-03-30 08:54:13 51°20.132 2°52.423 58.6 3.4 53 17.7
2007-03-30 08:54:17 51°20.134 2°52.428 58.5 3.4 53 17.7
2007-03-30 08:54:23 51°20.137 2°52.435 58.4 3.4 52 17.7
2007-03-30 08:54:28 51°20.14 2°52.441 58.2 3.4 52 17.7
2007-03-30 08:54:33 51°20.143 2°52.447 58.1 3.4 52 17.7
2007-03-30 08:54:38 51°20.146 2°52.453 58 3.4 53 17.7
2007-03-30 08:54:43 51°20.149 2°52.46 58 3.4 52 17.7
2007-03-30 08:54:48 51°20.152 2°52.466 57.9 3.4 52 17.7
2007-03-30 08:54:53 51°20.155 2°52.472 58 3.4 52 17.7
2007-03-30 08:54:58 51°20.157 2°52.478 58 3.4 52 17.7
2007-03-30 08:55:02 51°20.16 2°52.482 58 3.4 52 17.7
2007-03-30 08:55:08 51°20.163 2°52.49 58 3.4 52 17.7
2007-03-30 08:55:13 51°20.166 2°52.496 58 3.4 52 17.7
2007-03-30 08:55:18 51°20.169 2°52.502 58 3.4 52 17.7
2007-03-30 08:55:23 51°20.172 2°52.508 58 3.4 51 17.7
2007-03-30 08:55:28 51°20.175 2°52.514 57.9 3.4 52 17.7
2007-03-30 08:55:33 51°20.178 2°52.52 57.8 3.4 52 17.7
2007-03-30 08:55:38 51°20.181 2°52.526 57.7 3.4 52 17.7
2007-03-30 08:55:43 51°20.184 2°52.532 57.7 3.4 52 17.8
2007-03-30 08:55:48 51°20.186 2°52.538 57.6 3.4 52 17.7
2007-03-30 08:55:53 51°20.189 2°52.544 57.6 3.4 52 17.7
2007-03-30 08:55:58 51°20.192 2°52.55 57.5 3.4 51 17.7
2007-03-30 08:56:03 51°20.195 2°52.556 57.4 3.4 52 17.7
2007-03-30 08:56:08 51°20.198 2°52.562 57.3 3.4 51 17.8
2007-03-30 08:56:13 51°20.201 2°52.568 57.3 3.4 52 17.8
2007-03-30 08:56:18 51°20.204 2°52.574 57.3 3.4 51 17.8
2007-03-30 08:56:23 51°20.207 2°52.58 57.3 3.4 52 17.8
2007-03-30 08:56:28 51°20.21 2°52.586 57.5 3.4 52 17.9
2007-03-30 08:56:33 51°20.213 2°52.592 57.5 3.4 53 17.8
2007-03-30 08:56:37 51°20.215 2°52.596 57.6 3.4 52 17.8
2007-03-30 08:56:43 51°20.218 2°52.604 57.8 3.4 54 17.9
2007-03-30 08:56:48 51°20.221 2°52.61 58.2 3.4 53 17.8
2007-03-30 08:56:53 51°20.224 2°52.616 58.8 3.4 54 17.8
2007-03-30 08:56:58 51°20.227 2°52.622 59.4 3.4 55 17.8
2007-03-30 08:57:03 51°20.229 2°52.628 60.2 3.3 55 17.8
2007-03-30 08:57:08 51°20.232 2°52.634 60.9 3.4 57 17.8
2007-03-30 08:57:13 51°20.234 2°52.641 61.8 3.4 58 17.8
2007-03-30 08:57:18 51°20.237 2°52.647 62.7 3.4 57 17.9
2007-03-30 08:57:23 51°20.239 2°52.653 63.1 3.4 58 17.8
2007-03-30 08:57:28 51°20.242 2°52.659 63.4 3.4 58 17.9
2007-03-30 08:57:33 51°20.244 2°52.666 63.6 3.4 59 17.9
2007-03-30 08:57:38 51°20.247 2°52.672 63.5 3.4 58 17.9
2007-03-30 08:57:43 51°20.249 2°52.679 63.3 3.4 58 17.9
2007-03-30 08:57:48 51°20.251 2°52.685 62.9 3.4 58 17.9
2007-03-30 08:57:53 51°20.254 2°52.691 62.4 3.4 58 18
2007-03-30 08:57:58 51°20.256 2°52.698 61.8 3.4 57 17.9
2007-03-30 08:58:03 51°20.259 2°52.704 61.2 3.4 57 17.9
2007-03-30 08:58:08 51°20.262 2°52.71 60.6 3.4 56 17.9
2007-03-30 08:58:13 51°20.264 2°52.716 59.9 3.4 55 17.9
2007-03-30 08:58:18 51°20.267 2°52.722 59.2 3.4 54 17.9
2007-03-30 08:58:23 51°20.27 2°52.728 58.4 3.4 54 17.9